Weather History for Idaho Falls, ID

Change the Weather History Date:

Saturday, January 19, 2013

  Actual Average Record
Temperature  
Mean Temperature 3 °F 20 °F  
Max Temperature 17 °F 29 °F 45 °F (1971)
Min Temperature -12 °F 12 °F -22 °F (1963)
Degree Days  
Heating Degree Days 62 45  
Month to date heating degree days 1122 855  
Since 1 July heating degree days 3858 4128  
Cooling Degree Days 0 0  
Month to date cooling degree days 0 0  
Year to date cooling degree days 0 0  
Moisture  
Dew Point -6 °F    
Average Humidity 77    
Maximum Humidity 87    
Minimum Humidity 67    
Precipitation  
Precipitation 0.00 in 0.02 in 0.30 in (1969)
Month to date precipitation 0.14 0.46  
Year to date precipitation 0.14 0.46  
Sea Level Pressure  
Sea Level Pressure 30.78 in    
Wind  
Wind Speed 4 mph (NNE)    
Max Wind Speed 10 mph    
Max Gust Speed 12 mph    
Visibility 10 miles    
Events      
T = Trace of Precipitation, MM = Missing Value Source: NWS Daily Summary

Daily Weather History Graph

Daily Weather History Graph

Search for Another Location

Airport:

Trip Planner

Search our weather history database for the weather conditions in past years. The results will help you decide how hot, cold, wet, or windy it might be!

Date:

Astronomy

Jan. 19, 2013 Rise Set
Actual Time 7:55 AM MST 5:22 PM MST
Civil Twilight 7:24 AM MST 5:54 PM MST
Nautical Twilight 6:49 AM MST 6:29 PM MST
Astronomical Twilight 6:15 AM MST 7:03 PM MST
Moon 11:53 AM MST (1/19) 1:31 AM MST (1/19)
Length of Visible Light 10h 30m
Length of Day
9h 27m
First Quarter, 58% of the Moon is Illuminated
Jan 19
First Quarter
Jan 26
Full
Feb 3
Last Quarter
Feb 10
New
Feb 17
First Quarter

Hourly Weather History & Observations

Time (MST) Temp. Windchill Dew Point Humidity Pressure Visibility Wind Dir Wind Speed Gust Speed Precip Events Conditions
12:53 AM -4.0 °F -19.0 °F -9.0 °F 79% 30.74 in 10.0 mi East 8.1 mph - N/A   Clear
1:53 AM -7.1 °F -19.9 °F -11.0 °F 83% 30.74 in 10.0 mi NNE 5.8 mph - N/A   Clear
2:53 AM -7.1 °F -19.9 °F -11.0 °F 83% 30.76 in 10.0 mi NNE 5.8 mph - N/A   Clear
3:53 AM -8.0 °F -19.2 °F -11.0 °F 86% 30.77 in 10.0 mi NNE 4.6 mph - N/A   Clear
4:53 AM -9.0 °F -22.3 °F -14.1 °F 79% 30.79 in 10.0 mi NNE 5.8 mph - N/A   Clear
5:53 AM -9.0 °F -23.8 °F -14.1 °F 79% 30.81 in 10.0 mi North 6.9 mph - N/A   Clear
6:53 AM -9.9 °F -23.4 °F -15.0 °F 78% 30.84 in 10.0 mi NNE 5.8 mph - N/A   Clear
7:53 AM -9.0 °F -18.2 °F -15.0 °F 75% 30.82 in 10.0 mi North 3.5 mph - N/A   Clear
8:53 AM -4.0 °F -12.4 °F -9.0 °F 79% 30.84 in 10.0 mi NE 3.5 mph - N/A   Clear
9:53 AM -2.9 °F -15.0 °F -9.0 °F 75% 30.87 in 10.0 mi North 5.8 mph - N/A   Clear
10:53 AM -0.0 °F -13.0 °F -6.0 °F 76% 30.85 in 10.0 mi North 6.9 mph - N/A   Clear
11:53 AM 3.9 °F -8.2 °F -2.0 °F 76% 30.81 in 10.0 mi North 6.9 mph - N/A   Clear
12:53 PM 7.0 °F -1.7 °F 1.9 °F 80% 30.77 in 10.0 mi North 4.6 mph - N/A   Clear
1:53 PM 12.0 °F 4.1 °F 3.9 °F 70% 30.75 in 10.0 mi North 4.6 mph - N/A   Clear
2:53 PM 12.9 °F 6.9 °F 5.0 °F 71% 30.74 in 10.0 mi NNW 3.5 mph - N/A   Clear
3:53 PM 16.0 °F 8.8 °F 6.1 °F 65% 30.73 in 10.0 mi NE 4.6 mph - N/A   Clear
4:53 PM 12.0 °F - 3.9 °F 70% 30.74 in 10.0 mi Calm Calm - N/A   Clear
5:53 PM 3.0 °F -4.4 °F -2.0 °F 80% 30.77 in 10.0 mi North 3.5 mph - N/A   Clear
6:53 PM 3.0 °F - -2.0 °F 80% 30.78 in 10.0 mi Calm Calm - N/A   Clear
7:53 PM 1.0 °F - -2.0 °F 87% 30.78 in 10.0 mi Calm Calm - N/A   Clear
8:53 PM -0.9 °F - -6.0 °F 79% 30.78 in 10.0 mi Calm Calm - N/A   Clear
9:53 PM -2.9 °F -11.2 °F -7.1 °F 82% 30.79 in 9.0 mi NNE 3.5 mph - N/A   Clear
10:53 PM -0.9 °F -11.0 °F -5.1 °F 83% 30.78 in 10.0 mi NNE 4.6 mph - N/A   Clear
11:53 PM -0.9 °F - -6.0 °F 79% 30.75 in 10.0 mi Calm Calm - N/A   Clear